Weather in Mestre

Italy     45°29′51″N   12°14′54″E
В апреле 2022 года жителям России запретили посещать сайт meteo.paraplan.net по решению Генеральной прокуратуры. Аудитория сайта уменьшилась в 10 раз. Владельцы сайта не видят смысла в поддержке погодного сервера в таких условиях. Сайт будет закрыт в октябре.
temp.,
°C
wind,
m/s
gust,
m/s
humid.,
%
clouds,
%
prec.,
mm/h
press.,
hPa
HPBL,
m
30 september, fri
fri3023:00+15nne1392100 0.9 1001168
02:00+15w1395100 2.7 1002147
05:00+13nnw2396100 0.0 1003122
08:00+14nne4793100 0.1 1006271
11:00+17ne228271 0.3 1009367
14:00+19se2271100 2.8 1009178
17:00+18sse3478100 1.7 1010259
20:00+16ene1294100 5.3 1012102
1 october, sat
sat123:00+16ne3597100 11.0 1013270
02:00+15nne3596100 16.3 1013282
05:00+15n459491 2.1 1014249
08:00+15w238995 2.2 1015154
11:00+18sw45725 0.0 1016611
14:00+21wsw7861100 0.0 10151209
17:00+20wsw596297 0.0 1014977
20:00+17sw5117029 0.0 1015347
2 october, sun
sun223:00+15wsw48750 0.0 1016215
02:00+14nw33870 0.0 101774
05:00+14n11900 0.0 101846
08:00+14n23835 0.0 101984
11:00+19nne34689 0.0 1021511
14:00+21ene226020 0.0 1020924
17:00+21ese32645 0.0 1020559
20:00+18e2278100 0.0 102155
3 october, mon
mon323:00+17ne238098 0.0 102164
02:00+16ne228219 0.0 102043
05:00+15n228412 0.0 101937
08:00+15nnw22824 0.0 101954
11:00+20nnw12643 0.0 1020431
14:00+22se11540 0.0 1018882
17:00+21se22610 0.0 1018360
20:00+18ene11684 0.0 101918
4 october, tue
tue423:00+18nne33690 0.0 102047
02:00+16nne33740 0.0 102051
05:00+15ne337675 0.0 101958
08:00+15ne237363 0.0 102067
11:00+19ne2257100 0.0 1020370
14:00+22se21515 0.0 1020687
17:00+20sse3261100 0.0 1019228
20:00+18se227299 0.0 101949